SWA672 KTYS-KDAL

Flight info

Callsign SWA672
Flight time 1h 48m
Altitude 34000
Route SMTTH METWO Q66 LITTR DIRRK HIBIL3
Aircraft B738/M-SDE2E3FGHIRWXY/LB1

Departure

Time 2026-04-24 13:59
Airport McGhee Tyson Airport (KTYS)

Arrival

Time 2026-04-24 15:48
Airport Dallas Love Field (KDAL)
Time Latitude Longitude Altitude Speed Heading
2026-04-24 13:40 35.80708 -83.99133 956 ft 0 kts 134°
2026-04-24 13:51 35.80715 -83.99142 956 ft 2 kts 134°
2026-04-24 13:52 35.80725 -83.99155 956 ft 2 kts 134°
2026-04-24 13:52 35.80736 -83.99168 957 ft 2 kts 134°
2026-04-24 13:52 35.80747 -83.99182 957 ft 1 kts 134°
2026-04-24 13:52 35.80753 -83.99190 957 ft 1 kts 117°
2026-04-24 13:53 35.80754 -83.99208 957 ft 2 kts 67°
2026-04-24 13:53 35.80750 -83.99216 957 ft 0 kts 40°
2026-04-24 13:53 35.80746 -83.99221 957 ft 0 kts 45°
2026-04-24 13:55 35.80753 -83.99212 957 ft 3 kts 47°
2026-04-24 13:55 35.80776 -83.99181 958 ft 6 kts 46°
2026-04-24 13:55 35.80817 -83.99132 960 ft 10 kts 44°
2026-04-24 13:56 35.80879 -83.99056 959 ft 14 kts 44°
2026-04-24 13:56 35.80969 -83.99036 963 ft 13 kts
2026-04-24 13:56 35.81046 -83.98966 964 ft 15 kts 44°
2026-04-24 13:56 35.81128 -83.98867 964 ft 18 kts 44°
2026-04-24 13:57 35.81224 -83.98750 962 ft 20 kts 44°
2026-04-24 13:57 35.81327 -83.98624 962 ft 20 kts 45°
2026-04-24 13:57 35.81429 -83.98500 959 ft 19 kts 44°
2026-04-24 13:57 35.81526 -83.98381 956 ft 16 kts 44°
2026-04-24 13:58 35.81612 -83.98340 956 ft 13 kts 327°
2026-04-24 13:58 35.81643 -83.98399 959 ft 5 kts 241°
2026-04-24 13:58 35.81628 -83.98421 960 ft 0 kts 228°
2026-04-24 13:58 35.81546 -83.98523 962 ft 50 kts 224°
2026-04-24 13:59 35.81112 -83.99053 967 ft 121 kts 225°
2026-04-24 13:59 35.80365 -83.99966 953 ft 178 kts 225°
2026-04-24 13:59 35.79448 -84.01082 1493 ft 188 kts 225°
2026-04-24 13:59 35.78561 -84.02162 2361 ft 181 kts 225°
2026-04-24 14:00 35.77604 -84.03344 2577 ft 204 kts 225°
2026-04-24 14:00 35.76562 -84.04699 2798 ft 229 kts 238°
2026-04-24 14:00 35.76076 -84.06564 3358 ft 234 kts 275°
2026-04-24 14:00 35.76547 -84.08491 3885 ft 247 kts 296°
2026-04-24 14:01 35.77296 -84.10423 4532 ft 256 kts 292°
2026-04-24 14:01 35.77959 -84.12501 5227 ft 264 kts 288°
2026-04-24 14:01 35.78558 -84.14641 6038 ft 266 kts 285°
2026-04-24 14:01 35.79105 -84.16801 6816 ft 268 kts 284°
2026-04-24 14:02 35.79633 -84.18998 7566 ft 271 kts 284°
2026-04-24 14:02 35.80163 -84.21230 8305 ft 274 kts 284°
2026-04-24 14:02 35.80713 -84.23502 9024 ft 278 kts 284°
2026-04-24 14:02 35.81267 -84.25751 9723 ft 280 kts 285°
2026-04-24 14:03 35.81842 -84.28067 10341 ft 286 kts 285°
2026-04-24 14:03 35.82456 -84.30522 10417 ft 311 kts 286°
2026-04-24 14:03 35.83120 -84.33159 10492 ft 334 kts 286°
2026-04-24 14:03 35.83816 -84.35922 10926 ft 343 kts 286°
2026-04-24 14:04 35.84518 -84.38723 11464 ft 348 kts 287°
2026-04-24 14:04 35.85238 -84.41594 12072 ft 351 kts 287°
2026-04-24 14:04 35.85960 -84.44476 12630 ft 355 kts 287°
2026-04-24 14:04 35.86692 -84.47393 13219 ft 357 kts 287°
2026-04-24 14:05 35.87422 -84.50305 13759 ft 360 kts 287°
2026-04-24 14:05 35.88156 -84.53236 14285 ft 362 kts 288°
2026-04-24 14:05 35.88901 -84.56220 14800 ft 365 kts 288°
2026-04-24 14:05 35.89651 -84.59227 15303 ft 368 kts 288°
2026-04-24 14:06 35.90398 -84.62230 15785 ft 371 kts 288°
2026-04-24 14:06 35.91164 -84.65308 16262 ft 374 kts 287°
2026-04-24 14:06 35.91927 -84.68382 16742 ft 376 kts 287°
2026-04-24 14:06 35.92688 -84.71455 17209 ft 378 kts 287°
2026-04-24 14:07 35.93464 -84.74588 17671 ft 381 kts 288°
2026-04-24 14:07 35.94235 -84.77702 18095 ft 383 kts 288°
2026-04-24 14:07 35.95015 -84.80854 18526 ft 385 kts 288°
2026-04-24 14:07 35.95798 -84.84019 18943 ft 387 kts 288°
2026-04-24 14:08 35.96585 -84.87209 19370 ft 389 kts 288°
2026-04-24 14:08 35.97364 -84.90376 19790 ft 391 kts 288°
2026-04-24 14:08 35.98157 -84.93600 20194 ft 393 kts 288°
2026-04-24 14:08 35.98947 -84.96812 20609 ft 394 kts 288°
2026-04-24 14:09 35.99744 -85.00065 20995 ft 397 kts 287°
2026-04-24 14:09 36.00542 -85.03313 21339 ft 399 kts 287°
2026-04-24 14:09 36.01347 -85.06601 21744 ft 400 kts 287°
2026-04-24 14:09 36.02161 -85.09930 22097 ft 403 kts 287°
2026-04-24 14:10 36.02692 -85.12109 22319 ft 404 kts 287°
2026-04-24 14:10 36.03776 -85.16559 22844 ft 406 kts 287°
2026-04-24 14:10 36.04590 -85.19906 23154 ft 410 kts 287°
2026-04-24 14:10 36.05410 -85.23282 23589 ft 411 kts 287°
2026-04-24 14:11 36.06203 -85.26650 23901 ft 414 kts 284°
2026-04-24 14:11 36.06704 -85.30170 24235 ft 416 kts 276°
2026-04-24 14:11 36.06269 -85.37302 24901 ft 422 kts 260°
2026-04-24 14:12 36.05660 -85.40841 25294 ft 423 kts 259°
2026-04-24 14:12 36.05030 -85.44420 25598 ft 426 kts 259°
2026-04-24 14:12 36.04410 -85.47958 25928 ft 428 kts 259°
2026-04-24 14:12 36.03775 -85.51588 26259 ft 430 kts 259°
2026-04-24 14:13 36.03144 -85.55203 26564 ft 432 kts 259°
2026-04-24 14:13 36.02518 -85.58782 26933 ft 433 kts 259°
2026-04-24 14:13 36.01876 -85.62462 27206 ft 436 kts 259°
2026-04-24 14:13 36.01244 -85.66077 27508 ft 437 kts 259°
2026-04-24 14:14 36.00598 -85.69765 27817 ft 439 kts 259°
2026-04-24 14:14 35.99950 -85.73454 28103 ft 441 kts 259°
2026-04-24 14:14 35.98655 -85.80822 28822 ft 441 kts 259°
2026-04-24 14:15 35.97998 -85.84547 29211 ft 440 kts 258°
2026-04-24 14:15 35.97356 -85.88180 29607 ft 439 kts 258°
2026-04-24 14:15 35.96698 -85.91849 30002 ft 437 kts 258°
2026-04-24 14:15 35.96044 -85.95480 30372 ft 436 kts 258°
2026-04-24 14:16 35.95379 -85.99159 30719 ft 436 kts 258°
2026-04-24 14:16 35.94727 -86.02755 31093 ft 434 kts 258°
2026-04-24 14:16 35.94067 -86.06400 31410 ft 433 kts 258°
2026-04-24 14:17 35.92760 -86.13598 32055 ft 432 kts 258°
2026-04-24 14:17 35.92104 -86.17198 32398 ft 430 kts 259°
2026-04-24 14:17 35.90788 -86.24411 32995 ft 429 kts 259°
2026-04-24 14:18 35.90138 -86.27965 33270 ft 429 kts 259°
2026-04-24 14:18 35.89485 -86.31526 33587 ft 427 kts 259°
2026-04-24 14:18 35.88834 -86.35068 33847 ft 427 kts 259°
2026-04-24 14:18 35.88171 -86.38676 33899 ft 429 kts 259°
2026-04-24 14:19 35.86862 -86.45779 33892 ft 422 kts 259°
2026-04-24 14:19 35.85561 -86.52817 33940 ft 421 kts 259°
2026-04-24 14:20 35.84258 -86.59840 33991 ft 425 kts 259°
2026-04-24 14:20 35.82936 -86.66930 33989 ft 424 kts 258°
2026-04-24 14:21 35.81619 -86.73962 33990 ft 422 kts 258°
2026-04-24 14:21 35.80301 -86.80985 33991 ft 423 kts 259°
2026-04-24 14:22 35.78968 -86.88061 33990 ft 423 kts 259°
2026-04-24 14:23 35.76973 -86.98611 33984 ft 422 kts 259°
2026-04-24 14:23 35.75637 -87.05647 33978 ft 421 kts 259°
2026-04-24 14:24 35.74308 -87.12629 33973 ft 422 kts 259°
2026-04-24 14:24 35.72958 -87.19687 33971 ft 422 kts 259°
2026-04-24 14:25 35.71621 -87.26660 33972 ft 421 kts 259°
2026-04-24 14:25 35.70269 -87.33691 33972 ft 422 kts 259°
2026-04-24 14:26 35.68921 -87.40667 33971 ft 421 kts 259°
2026-04-24 14:26 35.67567 -87.47659 33972 ft 421 kts 259°
2026-04-24 14:27 35.66206 -87.54673 33972 ft 421 kts 259°
2026-04-24 14:27 35.64846 -87.61643 33972 ft 421 kts 259°
2026-04-24 14:28 35.63475 -87.68649 33972 ft 421 kts 258°
2026-04-24 14:28 35.62105 -87.75607 33971 ft 421 kts 259°
2026-04-24 14:29 35.60727 -87.82599 33972 ft 421 kts 259°
2026-04-24 14:29 35.59353 -87.89552 33969 ft 421 kts 259°
2026-04-24 14:30 35.58203 -87.95355 33965 ft 421 kts 259°
2026-04-24 14:30 35.56588 -88.03475 33959 ft 421 kts 259°
2026-04-24 14:31 35.55199 -88.10438 33954 ft 420 kts 259°
2026-04-24 14:31 35.53806 -88.17400 33954 ft 420 kts 259°
2026-04-24 14:32 35.52403 -88.24390 33954 ft 420 kts 259°
2026-04-24 14:32 35.51007 -88.31319 33954 ft 420 kts 259°
2026-04-24 14:33 35.49599 -88.38289 33956 ft 420 kts 259°
2026-04-24 14:33 35.48199 -88.45188 33957 ft 420 kts 259°
2026-04-24 14:34 35.46790 -88.52116 33959 ft 419 kts 259°
2026-04-24 14:34 35.45376 -88.59051 33961 ft 419 kts 259°
2026-04-24 14:35 35.43953 -88.66007 33963 ft 420 kts 258°
2026-04-24 14:35 35.42532 -88.72903 33964 ft 419 kts 258°
2026-04-24 14:36 35.41102 -88.79842 33966 ft 419 kts 258°
2026-04-24 14:36 35.39678 -88.86733 33964 ft 419 kts 258°
2026-04-24 14:37 35.38251 -88.93637 33960 ft 418 kts 259°
2026-04-24 14:37 35.36840 -89.00523 33957 ft 417 kts 259°
2026-04-24 14:38 35.35421 -89.07433 33954 ft 418 kts 259°
2026-04-24 14:38 35.34002 -89.14321 33954 ft 418 kts 259°
2026-04-24 14:39 35.32571 -89.21230 33953 ft 417 kts 259°
2026-04-24 14:39 35.31154 -89.28070 33954 ft 416 kts 259°
2026-04-24 14:40 35.29719 -89.34967 33954 ft 417 kts 259°
2026-04-24 14:40 35.28285 -89.41836 33954 ft 417 kts 259°
2026-04-24 14:41 35.26843 -89.48721 33954 ft 417 kts 259°
2026-04-24 14:41 35.25402 -89.55575 33954 ft 416 kts 259°
2026-04-24 14:42 35.23962 -89.62413 33954 ft 416 kts 259°
2026-04-24 14:42 35.22512 -89.69272 33954 ft 417 kts 258°
2026-04-24 14:43 35.21061 -89.76105 33954 ft 417 kts 258°
2026-04-24 14:43 35.19608 -89.82934 33955 ft 417 kts 258°
2026-04-24 14:44 35.18143 -89.89800 33954 ft 417 kts 258°
2026-04-24 14:44 35.16677 -89.96653 33953 ft 416 kts 258°
2026-04-24 14:45 35.15216 -90.03472 33953 ft 416 kts 258°
2026-04-24 14:45 35.13738 -90.10340 33947 ft 416 kts 258°
2026-04-24 14:46 35.12272 -90.17135 33942 ft 416 kts 258°
2026-04-24 14:46 35.10792 -90.23972 33937 ft 417 kts 258°
2026-04-24 14:47 35.09309 -90.30798 33936 ft 417 kts 258°
2026-04-24 14:47 35.07814 -90.37663 33935 ft 416 kts 258°
2026-04-24 14:48 35.06327 -90.44470 33935 ft 416 kts 258°
2026-04-24 14:48 35.04827 -90.51321 33936 ft 417 kts 258°
2026-04-24 14:49 35.03323 -90.58160 33935 ft 417 kts 258°
2026-04-24 14:49 35.01824 -90.64970 33935 ft 417 kts 258°
2026-04-24 14:50 35.00317 -90.71775 33936 ft 418 kts 257°
2026-04-24 14:50 34.98794 -90.78639 33935 ft 418 kts 257°
2026-04-24 14:51 34.97281 -90.85445 33935 ft 418 kts 257°
2026-04-24 14:51 34.95756 -90.92283 33935 ft 418 kts 257°
2026-04-24 14:52 34.94221 -90.99143 33937 ft 418 kts 257°
2026-04-24 14:52 34.92693 -91.05960 33948 ft 418 kts 257°
2026-04-24 14:53 34.91160 -91.12776 33958 ft 418 kts 257°
2026-04-24 14:53 34.89617 -91.19621 33968 ft 418 kts 257°
2026-04-24 14:54 34.88074 -91.26445 33972 ft 419 kts 257°
2026-04-24 14:54 34.86527 -91.33266 33970 ft 419 kts 257°
2026-04-24 14:55 34.85234 -91.38950 33967 ft 419 kts 257°
2026-04-24 14:55 34.83416 -91.46923 33965 ft 420 kts 256°
2026-04-24 14:56 34.81855 -91.53747 33962 ft 419 kts 256°
2026-04-24 14:56 34.80297 -91.60551 33959 ft 420 kts 257°
2026-04-24 14:57 34.78804 -91.67426 33957 ft 420 kts 257°
2026-04-24 14:57 34.77328 -91.74279 33954 ft 420 kts 257°
2026-04-24 14:58 34.75841 -91.81156 33952 ft 420 kts 257°
2026-04-24 14:58 34.74356 -91.87997 33949 ft 420 kts 257°
2026-04-24 14:59 34.72860 -91.94863 33947 ft 421 kts 257°
2026-04-24 14:59 34.71360 -92.01738 33944 ft 421 kts 256°
2026-04-24 15:00 34.69857 -92.08626 33945 ft 421 kts 256°
2026-04-24 15:00 34.68351 -92.15456 33945 ft 421 kts 256°
2026-04-24 15:01 34.66434 -92.22225 33946 ft 422 kts 250°
2026-04-24 15:01 34.64253 -92.28784 33945 ft 422 kts 249°
2026-04-24 15:02 34.62047 -92.35416 33945 ft 422 kts 250°
2026-04-24 15:02 34.59866 -92.41977 33945 ft 422 kts 250°
2026-04-24 15:03 34.57660 -92.48605 33945 ft 422 kts 250°
2026-04-24 15:03 34.55465 -92.55191 33945 ft 422 kts 249°
2026-04-24 15:04 34.53273 -92.61758 33945 ft 421 kts 249°
2026-04-24 15:04 34.51068 -92.68345 33945 ft 421 kts 249°
2026-04-24 15:05 34.48862 -92.74917 33945 ft 421 kts 249°
2026-04-24 15:05 34.46663 -92.81461 33945 ft 421 kts 249°
2026-04-24 15:06 34.44456 -92.88015 33945 ft 421 kts 249°
2026-04-24 15:06 34.42246 -92.94565 33935 ft 421 kts 249°
2026-04-24 15:07 34.40016 -93.01159 33923 ft 420 kts 248°
2026-04-24 15:07 34.37810 -93.07670 33910 ft 420 kts 248°
2026-04-24 15:08 34.35585 -93.14223 33899 ft 420 kts 248°
2026-04-24 15:08 34.33365 -93.20748 33899 ft 420 kts 248°
2026-04-24 15:09 34.31141 -93.27274 33899 ft 420 kts 248°
2026-04-24 15:09 34.28915 -93.33790 33899 ft 420 kts 248°
2026-04-24 15:10 34.26696 -93.40269 33899 ft 420 kts 248°
2026-04-24 15:10 34.24460 -93.46784 33899 ft 420 kts 248°
2026-04-24 15:11 34.22219 -93.53303 33900 ft 419 kts 248°
2026-04-24 15:11 34.19977 -93.59810 33899 ft 418 kts 248°
2026-04-24 15:12 34.17750 -93.66260 33899 ft 418 kts 247°
2026-04-24 15:12 34.14374 -93.76002 33899 ft 419 kts 247°
2026-04-24 15:13 34.12181 -93.82525 33899 ft 419 kts 248°
2026-04-24 15:13 34.10055 -93.89038 33892 ft 419 kts 248°
2026-04-24 15:14 34.07919 -93.95559 33876 ft 419 kts 248°
2026-04-24 15:14 34.05760 -94.02130 33861 ft 419 kts 248°
2026-04-24 15:15 34.03619 -94.08627 33846 ft 419 kts 248°
2026-04-24 15:15 34.01452 -94.15184 33844 ft 419 kts 248°
2026-04-24 15:16 33.99305 -94.21666 33845 ft 419 kts 248°
2026-04-24 15:16 33.97139 -94.28186 33844 ft 418 kts 249°
2026-04-24 15:17 33.94985 -94.34661 33844 ft 417 kts 249°
2026-04-24 15:17 33.92816 -94.41165 33845 ft 417 kts 249°
2026-04-24 15:18 33.90660 -94.47623 33844 ft 416 kts 249°
2026-04-24 15:18 33.88504 -94.54060 33844 ft 415 kts 249°
2026-04-24 15:19 33.86341 -94.60509 33844 ft 414 kts 249°
2026-04-24 15:19 33.84180 -94.66935 33844 ft 413 kts 249°
2026-04-24 15:20 33.82026 -94.73322 33844 ft 413 kts 249°
2026-04-24 15:20 33.79874 -94.79692 33844 ft 412 kts 249°
2026-04-24 15:21 33.78798 -94.82869 33736 ft 408 kts 249°
2026-04-24 15:21 33.77734 -94.85992 33240 ft 405 kts 249°
2026-04-24 15:21 33.76680 -94.89099 32734 ft 401 kts 249°
2026-04-24 15:21 33.75625 -94.92184 32237 ft 397 kts 249°
2026-04-24 15:22 33.74572 -94.95252 31742 ft 393 kts 249°
2026-04-24 15:22 33.73542 -94.98247 31257 ft 390 kts 249°
2026-04-24 15:22 33.72516 -95.01228 30774 ft 386 kts 249°
2026-04-24 15:23 33.70475 -95.07151 29807 ft 379 kts 249°
2026-04-24 15:23 33.68474 -95.12941 28859 ft 372 kts 249°
2026-04-24 15:23 33.67492 -95.15779 28398 ft 369 kts 249°
2026-04-24 15:24 33.64585 -95.24167 27016 ft 359 kts 249°
2026-04-24 15:25 33.62992 -95.28757 26255 ft 353 kts 249°
2026-04-24 15:25 33.60820 -95.35002 25219 ft 345 kts 249°
2026-04-24 15:26 33.58092 -95.42833 23933 ft 335 kts 249°
2026-04-24 15:27 33.55461 -95.50495 22644 ft 326 kts 249°
2026-04-24 15:27 33.52914 -95.57904 21409 ft 318 kts 249°
2026-04-24 15:28 33.49591 -95.67528 19796 ft 308 kts 248°
2026-04-24 15:29 33.47954 -95.72223 19005 ft 306 kts 248°
2026-04-24 15:30 33.45471 -95.79299 17808 ft 305 kts 248°
2026-04-24 15:31 33.42208 -95.88572 16435 ft 303 kts 248°
2026-04-24 15:32 33.38996 -95.97681 14897 ft 294 kts 248°
2026-04-24 15:33 33.35851 -96.06577 13362 ft 287 kts 249°
2026-04-24 15:33 33.33542 -96.13094 12225 ft 282 kts 249°
2026-04-24 15:34 33.32016 -96.17396 11474 ft 279 kts 249°
2026-04-24 15:35 33.29769 -96.23727 10369 ft 275 kts 248°
2026-04-24 15:35 33.28298 -96.27856 9974 ft 260 kts 248°
2026-04-24 15:35 33.27594 -96.29828 9665 ft 258 kts 248°
2026-04-24 15:36 33.26885 -96.31820 9288 ft 259 kts 248°
2026-04-24 15:36 33.25028 -96.35461 9026 ft 259 kts 233°
2026-04-24 15:36 33.23910 -96.37148 9004 ft 264 kts 233°
2026-04-24 15:37 33.22776 -96.38867 9007 ft 262 kts 234°
2026-04-24 15:37 33.21653 -96.40582 9006 ft 262 kts 234°
2026-04-24 15:37 33.20531 -96.42302 9009 ft 262 kts 234°
2026-04-24 15:37 33.19401 -96.44036 9008 ft 262 kts 234°
2026-04-24 15:38 33.18292 -96.45738 8996 ft 259 kts 234°
2026-04-24 15:38 33.17228 -96.47431 8847 ft 252 kts 236°
2026-04-24 15:38 33.16204 -96.49180 8523 ft 259 kts 237°
2026-04-24 15:38 33.15186 -96.50929 8192 ft 258 kts 237°
2026-04-24 15:39 33.14161 -96.52684 7865 ft 256 kts 237°
2026-04-24 15:39 33.13137 -96.54432 7541 ft 254 kts 237°
2026-04-24 15:39 33.12126 -96.56152 7218 ft 253 kts 237°
2026-04-24 15:39 33.11136 -96.57838 6903 ft 251 kts 236°
2026-04-24 15:40 33.10133 -96.59542 6586 ft 249 kts 236°
2026-04-24 15:40 33.09139 -96.61231 6276 ft 247 kts 237°
2026-04-24 15:40 33.08170 -96.62874 6099 ft 237 kts 237°
2026-04-24 15:40 33.07253 -96.64434 5910 ft 224 kts 237°
2026-04-24 15:41 33.06372 -96.65930 5737 ft 216 kts 236°
2026-04-24 15:41 33.05519 -96.67378 5493 ft 214 kts 236°
2026-04-24 15:41 33.04671 -96.68816 5284 ft 208 kts 235°
2026-04-24 15:41 33.03858 -96.70197 5027 ft 204 kts 235°
2026-04-24 15:42 33.03046 -96.71573 4808 ft 198 kts 234°
2026-04-24 15:42 33.02274 -96.72880 4600 ft 192 kts 234°
2026-04-24 15:42 33.01502 -96.74185 4393 ft 189 kts 234°
2026-04-24 15:42 33.00746 -96.75466 4190 ft 190 kts 234°
2026-04-24 15:43 32.99996 -96.76736 4021 ft 182 kts 233°
2026-04-24 15:43 32.99287 -96.77936 3780 ft 173 kts 233°
2026-04-24 15:43 32.98616 -96.79071 3606 ft 167 kts 233°
2026-04-24 15:43 32.97941 -96.80209 3433 ft 168 kts 232°
2026-04-24 15:44 32.97264 -96.81355 3246 ft 169 kts 232°
2026-04-24 15:44 32.96593 -96.82489 3092 ft 167 kts 232°
2026-04-24 15:44 32.95921 -96.83607 3017 ft 165 kts 230°
2026-04-24 15:44 32.95162 -96.84676 2868 ft 172 kts 226°
2026-04-24 15:45 32.94377 -96.85734 2594 ft 167 kts 226°
2026-04-24 15:45 32.93624 -96.86759 2427 ft 166 kts 227°
2026-04-24 15:45 32.92862 -96.87802 2232 ft 168 kts 227°
2026-04-24 15:45 32.92110 -96.88757 2078 ft 150 kts 219°
2026-04-24 15:46 32.91213 -96.89376 1821 ft 154 kts 199°
2026-04-24 15:46 32.90160 -96.89550 1665 ft 154 kts 177°
2026-04-24 15:46 32.89099 -96.89285 1473 ft 158 kts 162°
2026-04-24 15:46 32.88175 -96.88599 1164 ft 158 kts 138°
2026-04-24 15:47 32.87440 -96.87641 1011 ft 153 kts 137°
2026-04-24 15:47 32.86675 -96.86772 802 ft 153 kts 140°
2026-04-24 15:47 32.85902 -96.85883 583 ft 154 kts 139°
2026-04-24 15:47 32.85161 -96.85026 485 ft 131 kts 136°
2026-04-24 15:48 32.84684 -96.84472 489 ft 61 kts 136°
2026-04-24 15:48 32.84506 -96.84266 490 ft 17 kts 141°
2026-04-24 15:48 32.84430 -96.84278 488 ft 12 kts 222°
2026-04-24 15:48 32.84438 -96.84367 486 ft 14 kts 312°
2026-04-24 15:49 32.84515 -96.84457 486 ft 16 kts 315°
2026-04-24 15:49 32.84573 -96.84545 485 ft 9 kts 258°
2026-04-24 15:49 32.84524 -96.84617 485 ft 11 kts 231°
2026-04-24 15:49 32.84506 -96.84703 484 ft 11 kts 269°
2026-04-24 15:50 32.84506 -96.84803 482 ft 10 kts 271°
2026-04-24 15:50 32.84511 -96.84855 482 ft 2 kts 297°
2026-04-24 15:50 32.84537 -96.84869 482 ft 5 kts 351°
2026-04-24 15:50 32.84555 -96.84871 482 ft 0 kts 356°